Location: Zagreb
(45.8150°N, 15.9819°E)
Time: 22:13:36
(UTC+01:00)

ISS - Visible Passes

Search period start: 24 February 2020 00:00
Search period end: 05 March 2020 00:00
Orbit: 415 x 423 km, 51.6° (Epoch: 25 February)

Date Brightness Start Highest point End Pass type
(mag) Time Alt. Az. Time Alt. Az. Time Alt. Az.
24 Feb -2.2 05:09:45 17° SSW 05:11:45 32° SE 05:14:49 10° ENE visible
25 Feb -1.5 04:24:25 21° SE 04:24:25 21° SE 04:26:52 10° E visible
25 Feb -3.7 05:57:25 10° WSW 06:00:47 70° NNW 06:04:10 10° ENE visible
26 Feb -3.8 05:11:55 36° SW 05:13:08 80° SSE 05:16:32 10° ENE visible
27 Feb -2.5 04:26:20 40° E 04:26:20 40° E 04:28:50 10° ENE visible
27 Feb -3.0 05:59:18 10° W 06:02:26 39° NNW 06:05:39 10° NE visible
28 Feb -0.4 03:40:39 12° E 03:40:39 12° E 03:41:02 10° ENE visible
28 Feb -3.4 05:13:37 35° WNW 05:14:41 51° NNW 05:18:00 10° ENE visible
29 Feb -2.7 04:27:51 44° NE 04:27:51 44° NE 04:30:21 10° ENE visible
29 Feb -2.5 06:01:05 10° WNW 06:04:08 30° N 06:07:11 10° ENE visible
01 Mar -0.5 03:42:03 15° ENE 03:42:03 15° ENE 03:42:40 10° ENE visible
01 Mar -2.6 05:15:00 24° NW 05:16:19 33° N 05:19:27 10° NE visible
02 Mar -2.5 04:29:08 36° NNE 04:29:08 36° NNE 04:31:44 10° NE visible
03 Mar -0.7 03:43:15 16° NE 03:43:15 16° NE 03:44:03 10° ENE visible
03 Mar -2.3 05:16:11 18° NW 05:18:00 29° N 05:21:01 10° ENE visible
04 Mar -2.3 04:30:17 30° N 04:30:17 30° N 04:33:11 10° ENE visible
